Location: St. Louis
(38.6270°N, 90.1994°W)
Time: 18:45:42
(UTC-05:00)

deb Delta - Pass Details

Date: 08 July 2022
Orbit: 1084 x 1202 km, 99.8° (Epoch: 13 August)

Event Time Altitude Azimuth Distance (km) Brightness Sun altitude
Exits shadow 00:17:59 12° 96° (E) 2,995 ? -27.9°
Maximum altitude 00:22:06 19° 58° (ENE) 2,498 ? -28.0°
Drops below altitude 10° 00:26:47 10° 16° (NNE) 3,113 ? -28.2°
Sets 00:30:11 0° 0° (N) 4,063 ? -28.3°
